DW9234 Weather Reports


time (UTC)temp
C
wind
direction
speed
KPH
gust
KPH
rain 1hr
cm
rain 24hr
cm
rain mn
cm
humidity
%
barometer
mb
20260505023004 16 128 0.0 0.0 0.00 0.00 0.00 46 1012.4
20260505022004 16 128 0.0 0.0 0.00 0.00 0.00 46 1012.4
20260505020004 16 128 0.0 0.0 0.00 0.00 0.00 45 1012.3
20260505015004 16 128 0.0 0.0 0.00 0.00 0.00 44 1012.3
20260505013005 17 128 0.0 0.0 0.00 0.00 0.00 43 1012.1
20260505011004 17 136 0.0 3.2 0.00 0.00 0.00 42 1012.0
20260505010004 17 136 0.0 3.2 0.00 0.00 0.00 41 1011.9
20260505005004 18 138 0.0 3.2 0.00 0.00 0.00 40 1011.6
20260505004005 18 138 0.0 9.7 0.00 0.00 0.00 40 1011.7
20260505003004 18 112 0.0 6.4 0.00 0.00 0.00 39 1011.6
20260505002004 19 92 0.0 6.4 0.00 0.00 0.00 39 1011.6
20260505001004 19 126 1.6 8.0 0.00 0.00 0.00 38 1011.6
20260505000005 20 126 0.0 1.6 0.00 0.00 0.00 36 1011.6
20260504234004 21 124 1.6 3.2 0.00 0.00 0.00 34 1011.5
20260504233004 21 125 0.0 3.2 0.00 0.00 0.00 33 1011.6
20260504232005 21 96 0.0 6.4 0.00 0.00 0.00 33 1011.5
20260504231004 22 96 1.6 6.4 0.00 0.00 0.00 31 1011.5
20260504225004 22 96 1.6 9.7 0.00 0.00 0.00 26 1011.5
20260504224004 22 46 3.2 12.9 0.00 0.00 0.00 27 1011.5
20260504222004 22 84 8.0 9.7 0.00 0.00 0.00 27 1011.4
20260504221004 22 167 1.6 9.7 0.00 0.00 0.00 25 1011.6
20260504220005 22 310 0.0 9.7 0.00 0.00 0.00 24 1011.7
20260504215004 22 13 1.6 17.7 0.00 0.00 0.00 23 1011.7
20260504214004 22 14 3.2 12.9 0.00 0.00 0.00 24 1011.8
20260504213004 23 78 0.0 14.5 0.00 0.00 0.00 23 1011.9
20260504212004 23 69 4.8 11.3 0.00 0.00 0.00 23 1011.7
20260504211004 23 109 9.7 11.3 0.00 0.00 0.00 22 1011.9
20260504210004 23 226 0.0 9.7 0.00 0.00 0.00 23 1011.9
20260504205004 23 115 6.4 11.3 0.00 0.00 0.00 23 1011.8
20260504204004 23 57 8.0 12.9 0.00 0.00 0.00 23 1011.9
20260504203005 23 146 6.4 11.3 0.00 0.00 0.00 24 1011.9
20260504201005 23 81 1.6 16.1 0.00 0.00 0.00 22 1012.1
20260504200004 23 270 6.4 12.9 0.00 0.00 0.00 22 1012.2
20260504195004 23 269 8.0 14.5 0.00 0.00 0.00 21 1012.4
20260504192005 22 322 6.4 16.1 0.00 0.00 0.00 25 1012.8
20260504190004 23 322 3.2 12.9 0.00 0.00 0.00 22 1013.2
20260504185005 23 298 1.6 17.7 0.00 0.00 0.00 21 1013.1
20260504184004 22 101 3.2 17.7 0.00 0.00 0.00 23 1013.2
20260504183004 22 355 4.8 9.7 0.00 0.00 0.00 22 1013.3
20260504182004 22 232 0.0 12.9 0.00 0.00 0.00 26 1013.5
20260504181004 22 62 4.8 14.5 0.00 0.00 0.00 22 1013.7
20260504180005 22 29 1.6 14.5 0.00 0.00 0.00 20 1013.6
20260504175004 22 142 4.8 16.1 0.00 0.00 0.00 21 1013.7
20260504173004 22 82 3.2 16.1 0.00 0.00 0.00 20 1014.1
20260504172004 21 304 8.0 12.9 0.00 0.00 0.00 22 1014.2
20260504171005 21 115 6.4 17.7 0.00 0.00 0.00 22 1014.5
20260504151004 18 330 0.0 14.5 0.00 0.00 0.00 32 1015.6
20260504082004 7 171 0.0 0.0 0.00 0.00 0.00 64 1017.0
20260504081005 7 171 0.0 1.6 0.00 0.00 0.00 64 1017.1
20260504050003 8 60 0.0 3.2 0.00 0.00 0.00 57 1017.0
20260504043004 8 80 0.0 0.0 0.00 0.00 0.00 54 1017.0
20260504042003 8 22 0.0 0.0 0.00 0.00 0.00 54 1016.8
20260504041004 8 22 0.0 0.0 0.00 0.00 0.00 54 1016.6
20260504040004 8 22 0.0 0.0 0.00 0.00 0.00 54 1016.6
20260504034004 9 288 0.0 0.0 0.00 0.00 0.00 51 1016.5
20260504033004 10 289 0.0 0.0 0.00 0.00 0.00 50 1016.3
20260504032004 10 289 0.0 0.0 0.00 0.00 0.00 48 1016.3
20260504031004 10 289 0.0 0.0 0.00 0.00 0.00 48 1016.2
20260504030004 10 262 0.0 1.6 0.00 0.00 0.00 47 1016.1
20260504024005 10 262 0.0 1.6 0.00 0.00 0.00 44 1016.1